Home > Weather > Saint John's > Past weeks

Flag for Antigua and Barbuda Past Weather in Saint John's, Antigua and Barbuda — Yesterday and Last 2 Weeks

Now
88 °F

Passing clouds.


Feels Like: 98 °F
Forecast: 80 / 86 °F
Wind: 12 mph from East

Location: Vc Bird International Antigua Airport

Current Time: Jul 28, 2016 at 12:29:36 PM

Latest Report: Jul 28, 2016 at 12:00 PM


Visibility: N/A

Pressure: 29.98 "Hg

Humidity: 66%

Dew Point: 75 °F

Location of Saint John'sLocation

Past Weather in Saint John's — Graph

°F

Saint John's Temperature Yesterday

Maximum temperature yesterday: 88 °F (at 10:00 AM)
Minimum temperature yesterday: 82 °F (at 12:00 AM)
Average temperature yesterday: 84 °F

High & Low Weather Summary for the Past Weeks

 TemperatureHumidityPressure
High88 °F (Jul 14, 1:00 PM)89% (Jul 18, 4:00 PM)30.07 "Hg (Jul 18, 4:00 PM)
Low77 °F (Jul 18, 4:00 PM)55% (Jul 18, 11:00 AM)29.95 "Hg (Jul 15, 3:00 AM)
Average83 °F74%30.00 "Hg
* Reported Jul 13 2:00 PM — Jul 28 11:00 AM, Saint John's, Weather by CustomWeather, © 2016

Note: Actual official high and low records may vary slightly from our data, if they occured in-between our weather recording intervals... More about our weather records

Advertising

Saint John's Weather History for the Previous 24 Hours

Scroll right to see more
 ConditionsComfort  
Time TempWeatherWind HumidityBarometerVisibility
11:00 AM
Thu, Jul 28
86 °FScattered clouds.12 mph66%30.01 "HgN/A
10:00 AM86 °FScattered clouds.10 mph70%30.01 "HgN/A
9:00 AM84 °FPassing clouds.9 mph74%30.01 "HgN/A
8:00 AM82 °FPassing clouds.8 mph84%30.01 "HgN/A
7:00 AM81 °FSprinkles. Partly sunny.7 mph84%30.01 "Hg3 mi
6:00 AM77 °FScattered clouds.7 mph83%29.98 "HgN/A
5:00 AM79 °FPassing clouds.6 mph89%29.98 "HgN/A
4:00 AM79 °FPassing clouds.5 mph84%29.98 "HgN/A
3:00 AM82 °FPassing clouds.6 mph74%29.98 "HgN/A
2:00 AM81 °FPassing clouds.8 mph84%29.98 "HgN/A
1:00 AM81 °FPassing clouds.7 mph79%29.98 "HgN/A
12:00 AM81 °FPassing clouds.7 mph84%30.01 "HgN/A
11:00 PM
Wed, Jul 27
82 °FPassing clouds.8 mph79%30.01 "HgN/A
10:00 PM82 °FPassing clouds.7 mph79%30.01 "HgN/A
9:00 PM82 °FPassing clouds.7 mph79%30.01 "HgN/A
8:00 PM82 °FPassing clouds.8 mph79%30.01 "HgN/A
7:00 PM82 °FPassing clouds.9 mph79%29.98 "HgN/A
6:00 PM84 °FPassing clouds.8 mph74%29.95 "HgN/A
5:00 PM86 °FScattered clouds.8 mph70%29.98 "HgN/A
4:00 PM86 °FPassing clouds.8 mph70%29.95 "HgN/A
3:00 PM88 °FPassing clouds.10 mph66%29.98 "HgN/A
2:00 PM88 °FPassing clouds.12 mph66%29.98 "HgN/A
1:00 PM88 °FPassing clouds.10 mph66%29.98 "HgN/A
12:00 PM88 °FPassing clouds.10 mph66%30.01 "HgN/A
Weather by CustomWeather, © 2016

See weather overviewHow to use our weather pages